Home > Weather > Whitehorse > Past weeks

Flag for Canada Past Weather in Whitehorse, Yukon, Canada — Yesterday and Last 2 Weeks

Now
64 °F

Broken clouds.


Feels Like: 64 °F
Forecast: 49 / 68 °F
Wind: 10 mph from Southeast

Location: Whitehorse

Current Time: Jun 24, 2016 at 10:13:48 PM

Latest Report: Jun 24, 2016 at 9:00 PM


Visibility: 40 mi

Pressure: 29.84 "Hg (27.68 "Hg at 640m altitude)

Humidity: 43%

Dew Point: 41 °F

Location of WhitehorseLocation

Past Weather in Whitehorse — Graph

°F

Whitehorse Temperature Yesterday

Maximum temperature yesterday: 75 °F (at 6:00 PM)
Minimum temperature yesterday: 48 °F (at 5:00 AM)
Average temperature yesterday: 63 °F

High & Low Weather Summary for the Past Weeks

 TemperatureHumidityPressure
High79 °F (Jun 18, 6:00 PM)100% (Jun 14, 12:00 AM)30.15 "Hg (Jun 14, 12:00 AM)
Low45 °F (Jun 13, 6:08 AM)17% (Jun 10, 2:00 PM)29.72 "Hg (Jun 12, 8:00 PM)
Average58 °F56%29.94 "Hg
* Reported Jun 9 9:00 PM — Jun 24 9:00 PM, Whitehorse, Weather by CustomWeather, © 2016

Note: Actual official high and low records may vary slightly from our data, if they occured in-between our weather recording intervals... More about our weather records

Advertising

Whitehorse Weather History for the Previous 24 Hours

Scroll right to see more
 ConditionsComfort  
Time TempWeatherWind HumidityBarometerVisibility
9:00 PM
Fri, Jun 24
64 °FBroken clouds.10 mph43%29.84 "Hg40 mi
8:00 PM68 °FBroken clouds.9 mph35%29.82 "Hg40 mi
7:00 PM68 °FBroken clouds.16 mph38%29.81 "Hg40 mi
6:00 PM72 °FBroken clouds.12 mph31%29.81 "Hg40 mi
5:00 PM72 °FBroken clouds.8 mph31%29.81 "Hg40 mi
4:00 PM72 °FBroken clouds.13 mph25%29.81 "Hg40 mi
3:00 PM70 °FBroken clouds.9 mph31%29.82 "Hg40 mi
2:00 PM68 °FBroken clouds.6 mph35%29.82 "Hg40 mi
1:00 PM66 °FBroken clouds.7 mph37%29.83 "Hg40 mi
12:07 PM64 °FBroken clouds.7 mph40%29.83 "Hg40 mi
11:00 AM63 °FPartly sunny.6 mph45%29.84 "Hg40 mi
10:00 AM59 °FPartly sunny.6 mph55%29.85 "Hg40 mi
9:00 AM57 °FBroken clouds.2 mph63%29.85 "Hg40 mi
8:07 AM54 °FBroken clouds.3 mph72%29.84 "Hg40 mi
7:00 AM52 °FBroken clouds.5 mph67%29.84 "Hg40 mi
6:00 AM50 °FBroken clouds.9 mph62%29.84 "Hg40 mi
5:00 AM50 °FPartly cloudy.3 mph67%29.83 "Hg40 mi
4:00 AM52 °FPartly cloudy.3 mph67%29.83 "Hg40 mi
3:00 AM55 °FPassing clouds.3 mph59%29.80 "Hg30 mi
2:00 AM57 °FPassing clouds.5 mph55%29.78 "Hg30 mi
1:00 AM61 °FPassing clouds.7 mph48%29.77 "Hg30 mi
12:00 AM61 °FPartly sunny.2 mph52%29.78 "Hg40 mi
11:00 PM
Thu, Jun 23
64 °FPartly sunny.2 mph49%29.77 "Hg40 mi
10:00 PM66 °FScattered clouds.5 mph46%29.77 "Hg40 mi
Weather by CustomWeather, © 2016

See weather overviewHow to use our weather pages